GW4054 Weather Reports


Display with metric or nautical units.
time (UTC)temp
F
wind
direction
speed
MPH
gust
MPH
rain 1hr
in
rain 24hr
in
rain mn
in
humidity
%
barometer
mb
20260505224949 65 172 5.0 13.0 0.01 0.01 0.01 64 1009.1
20260505223407 66 170 3.0 12.0 0.01 0.01 0.01 62 1009.2
20260505221953 67 171 4.0 14.0 0.01 0.01 0.01 61 1008.9
20260505220414 67 166 4.0 14.0 0.01 0.01 0.01 61 1009.0
20260505214936 68 141 5.0 11.0 0.00 0.00 0.00 60 1009.0
20260505214833 68 141 5.0 11.0 0.00 0.00 0.00 60 1009.0
20260505213514 68 141 3.0 11.0 0.00 0.00 0.00 60 1008.9
20260505213322 68 141 3.0 11.0 0.00 0.00 0.00 60 1008.9
20260505211914 67 140 4.0 14.0 0.00 0.00 0.00 61 1008.8
20260505210436 68 126 7.0 14.0 0.00 0.00 0.00 60 1008.8
20260505204931 68 135 4.0 12.0 0.00 0.00 0.00 60 1008.9
20260505203354 70 137 4.0 11.0 0.00 0.00 0.00 58 1008.9
20260505202016 70 139 4.0 16.0 0.00 0.00 0.00 58 1008.9
20260505201825 70 139 4.0 16.0 0.00 0.00 0.00 58 1008.9
20260505200441 72 139 4.0 14.0 0.00 0.00 0.00 55 1009.0
20260505200335 72 139 4.0 14.0 0.00 0.00 0.00 55 1009.0
20260505194953 72 141 3.0 8.0 0.00 0.00 0.00 57 1009.1
20260505194823 72 141 3.0 8.0 0.00 0.00 0.00 57 1009.1
20260505193428 72 141 4.0 9.0 0.00 0.00 0.00 58 1009.2
20260505191922 71 141 3.0 11.0 0.00 0.00 0.00 58 1009.6
20260505190422 71 143 3.0 7.0 0.00 0.00 0.00 60 1009.7
20260505184914 70 143 4.0 9.0 0.00 0.00 0.00 60 1010.0
20260505183521 70 143 4.0 8.0 0.00 0.00 0.00 61 1010.1
20260505183413 70 143 4.0 8.0 0.00 0.00 0.00 61 1010.1
20260505181936 70 143 3.0 11.0 0.00 0.00 0.00 62 1010.2
20260505181833 70 143 3.0 11.0 0.00 0.00 0.00 62 1010.2
20260505180427 70 142 3.0 8.0 0.00 0.00 0.00 64 1010.2
20260505174914 69 141 2.0 8.0 0.00 0.00 0.00 63 1010.4
20260505173400 70 141 3.0 9.0 0.00 0.00 0.00 63 1010.6
20260505172020 71 142 2.0 8.0 0.00 0.00 0.00 60 1010.6
20260505171835 71 142 2.0 8.0 0.00 0.00 0.00 60 1010.6
20260505170414 71 142 4.0 9.0 0.00 0.00 0.00 59 1010.6
20260505164925 71 141 2.0 7.0 0.00 0.00 0.00 59 1010.5
20260505163510 72 141 2.0 9.0 0.00 0.00 0.00 59 1010.9
20260505163402 72 141 2.0 9.0 0.00 0.00 0.00 59 1010.9
20260505162003 71 141 4.0 9.0 0.00 0.00 0.00 57 1011.0
20260505161851 71 141 4.0 9.0 0.00 0.00 0.00 57 1011.0
20260505160420 72 141 2.0 7.0 0.00 0.00 0.00 59 1011.0
20260505153348 70 141 1.0 8.0 0.00 0.00 0.00 60 1011.2
20260505152028 69 141 3.0 7.0 0.00 0.00 0.00 60 1011.4
20260505151906 69 141 3.0 7.0 0.00 0.00 0.00 60 1011.4
20260505150532 69 141 3.0 7.0 0.00 0.00 0.00 62 1011.7
20260505150337 69 141 3.0 7.0 0.00 0.00 0.00 62 1011.7
20260505140405 67 139 2.0 5.0 0.00 0.00 0.00 63 1011.3
20260505124950 63 140 1.0 5.0 0.00 0.00 0.00 72 1011.2
20260505123507 61 140 2.0 4.0 0.00 0.00 0.00 74 1011.0
20260505123350 61 140 2.0 4.0 0.00 0.00 0.00 74 1011.0
20260505121930 59 140 1.0 7.0 0.00 0.00 0.00 78 1011.0
20260505120409 58 140 0.0 3.0 0.00 0.00 0.00 82 1011.2
20260505114856 56 140 0.0 1.0 0.00 0.00 0.00 86 1011.3
20260505113432 54 140 0.0 2.0 0.00 0.00 0.00 89 1011.3
20260505111945 53 140 0.0 1.0 0.00 0.00 0.00 90 1011.2
20260505110456 52 0 0.0 1.0 0.00 0.00 0.00 90 1011.2
20260505101948 51 0 0.0 1.0 0.00 0.00 0.00 89 1010.6
20260505101846 51 0 0.0 1.0 0.00 0.00 0.00 89 1010.6
20260505100457 51 0 0.0 1.0 0.00 0.00 0.00 89 1010.3
20260505100355 51 0 0.0 1.0 0.00 0.00 0.00 89 1010.3
20260505095002 51 0 0.0 2.0 0.00 0.00 0.00 89 1010.2
20260505093435 51 0 0.0 1.0 0.00 0.00 0.00 89 1010.3
20260505091944 51 0 0.0 1.0 0.00 0.00 0.00 89 1010.3
20260505091831 51 0 0.0 1.0 0.00 0.00 0.00 89 1010.3
20260505090446 51 0 0.0 1.0 0.00 0.00 0.00 88 1010.4
20260505090326 51 0 0.0 1.0 0.00 0.00 0.00 88 1010.4
20260505085000 51 140 0.0 2.0 0.00 0.00 0.00 88 1010.3
20260505084843 51 140 0.0 2.0 0.00 0.00 0.00 88 1010.3
20260505083502 52 140 0.0 2.0 0.00 0.00 0.00 88 1010.4
20260505083336 52 140 0.0 2.0 0.00 0.00 0.00 88 1010.4
20260505081928 52 140 0.0 2.0 0.00 0.00 0.00 88 1010.3
20260505080539 52 140 0.0 2.0 0.00 0.00 0.00 88 1010.3
20260505080411 52 140 0.0 2.0 0.00 0.00 0.00 88 1010.3
20260505074915 52 0 0.0 2.0 0.00 0.00 0.00 87 1010.4
20260505073511 52 140 0.0 3.0 0.00 0.00 0.00 87 1010.3
20260505073359 52 140 0.0 3.0 0.00 0.00 0.00 87 1010.3
20260505071855 52 140 1.0 2.0 0.00 0.00 0.00 87 1010.4
20260505070352 52 140 0.0 2.0 0.00 0.00 0.00 86 1010.3
20260505065013 52 140 1.0 2.0 0.00 0.00 0.00 86 1010.4
20260505063436 52 140 1.0 2.0 0.00 0.00 0.00 86 1010.4
20260505063319 52 140 1.0 2.0 0.00 0.00 0.00 86 1010.4
20260505061928 53 140 1.0 3.0 0.00 0.00 0.00 85 1010.6
20260505060357 53 140 0.0 2.0 0.00 0.00 0.00 84 1010.6
20260505055025 53 140 0.0 2.0 0.00 0.00 0.00 84 1010.7
20260505054828 53 140 0.0 2.0 0.00 0.00 0.00 84 1010.7
20260505053511 53 140 0.0 2.0 0.00 0.00 0.00 82 1010.8
20260505051854 54 140 1.0 3.0 0.00 0.00 0.00 81 1010.8
20260505050524 54 140 0.0 2.0 0.00 0.00 0.00 80 1011.0
20260505050333 54 140 0.0 2.0 0.00 0.00 0.00 80 1011.0
20260505040442 55 140 1.0 5.0 0.00 0.00 0.00 75 1011.3
20260505035005 55 0 0.0 1.0 0.00 0.00 0.00 75 1011.2
20260505033428 55 140 0.0 3.0 0.00 0.00 0.00 76 1011.2
20260505031857 55 140 1.0 4.0 0.00 0.00 0.00 76 1011.4
20260505030517 55 140 1.0 4.0 0.00 0.00 0.00 77 1011.4
20260505030324 55 140 1.0 4.0 0.00 0.00 0.00 77 1011.4
20260505024905 55 0 0.0 3.0 0.00 0.00 0.00 76 1011.5
20260505023347 55 0 0.0 2.0 0.00 0.00 0.00 76 1011.5
20260505021903 55 140 1.0 3.0 0.00 0.00 0.00 75 1011.5
20260505020317 55 140 0.0 3.0 0.00 0.00 0.00 74 1011.5
20260505014917 56 140 0.0 4.0 0.00 0.00 0.00 73 1011.4
20260505013422 56 140 0.0 2.0 0.00 0.00 0.00 71 1011.4
20260505011939 56 140 0.0 5.0 0.00 0.00 0.00 70 1011.2
20260505011824 56 140 0.0 5.0 0.00 0.00 0.00 70 1011.2
20260505010534 57 140 1.0 5.0 0.00 0.00 0.00 69 1011.0
20260505010343 57 140 1.0 5.0 0.00 0.00 0.00 69 1011.0
20260505004917 57 140 2.0 5.0 0.00 0.00 0.00 68 1010.9
20260505003417 57 140 2.0 4.0 0.00 0.00 0.00 67 1010.7
20260505001902 58 140 2.0 8.0 0.00 0.00 0.00 65 1010.4
20260505000410 58 140 2.0 9.0 0.00 0.00 0.00 65 1010.2
20260504235004 58 140 2.0 7.0 0.00 0.00 0.00 65 1010.0
20260504234857 58 140 2.0 7.0 0.00 0.00 0.00 65 1010.0
20260504233323 58 140 2.0 10.0 0.00 0.00 0.00 64 1009.9
20260504231930 59 141 2.0 8.0 0.00 0.00 0.00 63 1009.9
20260504230447 59 141 4.0 11.0 0.00 0.00 0.00 60 1009.8